Weather History for Pineville, WV

Change the Weather History Date:

Thursday, February 14, 2013

  Actual Average (KBKW) Record (KBKW)
Temperature  
Mean Temperature 42 °F 34 °F  
Max Temperature 52 °F 43 °F 69 °F (1932)
Min Temperature 32 °F 26 °F -13 °F (1899)
Degree Days  
Heating Degree Days 23 31  
Month to date heating degree days 448  
Since 1 July heating degree days 3592  
Cooling Degree Days 0 0  
Month to date cooling degree days 0  
Year to date cooling degree days 0  
Moisture  
Dew Point 32 °F    
Average Humidity 78    
Maximum Humidity 100    
Minimum Humidity 45    
Precipitation  
Precipitation 0.00 in 0.10 in 0.98 in (1970)
Month to date precipitation 1.35  
Year to date precipitation 4.16  
Snow  
Snow 0.00 in - - ()
Month to date snowfall  
Since 1 September snowfall  
Snow Depth -    
Sea Level Pressure  
Sea Level Pressure 30.01 in    
Wind  
Wind Speed - (North)    
Max Wind Speed -    
Max Gust Speed -    
Visibility 10 miles    
Events Snow    
T = Trace of Precipitation, MM = Missing Value Source: NWS Daily Summary

Daily Weather History Graph

Daily Weather History Graph

Search for Another Location

Airport:

Trip Planner

Search our weather history database for the weather conditions in past years. The results will help you decide how hot, cold, wet, or windy it might be!

Date:

Astronomy

Feb. 14, 2013 Rise Set
Actual Time 7:16 AM EST 6:04 PM EST
Civil Twilight 6:49 AM EST 6:31 PM EST
Nautical Twilight 6:19 AM EST 7:02 PM EST
Astronomical Twilight 5:48 AM EST 7:32 PM EST
Moon 9:24 AM EST (2/14) 10:59 PM EST (2/14)
Length of Visible Light 11h 41m
Length of Day
10h 48m
Waxing Crescent, 21% of the Moon is Illuminated
Feb 14
Waxing Crescent
Feb 17
First Quarter
Feb 25
Full
Mar 4
Last Quarter
Mar 11
New

Hourly Weather History & Observations

Time (EST) Temp. Dew Point Humidity Pressure Visibility Wind Dir Wind Speed Gust Speed Precip Events Conditions
12:15 AM 35.1 °F 34.7 °F 99% 29.94 in 5.0 mi North - - N/A Snow Light Snow
12:35 AM 34.9 °F 34.3 °F 98% 29.95 in 7.0 mi North - - N/A Snow Light Snow
12:55 AM 35.1 °F 34.0 °F 96% 29.95 in 10.0 mi North - - N/A   Overcast
1:15 AM 35.2 °F 33.6 °F 94% 29.96 in 10.0 mi North - - N/A   Overcast
1:35 AM 35.1 °F 31.8 °F 88% 29.96 in 10.0 mi North - - N/A   Overcast
1:55 AM 34.9 °F 31.1 °F 86% 29.98 in 10.0 mi North - - N/A   Overcast
2:15 AM 34.7 °F 29.8 °F 82% 29.98 in 10.0 mi North - - N/A   Overcast
2:35 AM 34.7 °F 30.6 °F 85% 29.99 in 10.0 mi North - - N/A   Overcast
2:55 AM 34.3 °F 32.0 °F 91% 29.99 in 10.0 mi North - - N/A   Overcast
3:15 AM 34.5 °F 31.3 °F 88% 30.00 in 10.0 mi North - - N/A   Overcast
3:35 AM 34.2 °F 31.8 °F 91% 30.00 in 10.0 mi North - - N/A   Overcast
3:55 AM 34.2 °F 32.0 °F 92% 30.01 in 10.0 mi North - - N/A   Overcast
4:15 AM 33.8 °F 32.2 °F 94% 30.01 in 10.0 mi North - - N/A   Overcast
4:35 AM 33.8 °F 32.4 °F 94% 30.01 in 10.0 mi North - - N/A   Overcast
4:55 AM 33.8 °F 32.5 °F 95% 30.01 in 10.0 mi North - - N/A   Overcast
5:15 AM 34.0 °F 32.7 °F 95% 30.01 in 10.0 mi North - - N/A   Overcast
5:35 AM 34.0 °F 32.2 °F 93% 30.01 in 10.0 mi North - - N/A   Overcast
5:55 AM 33.8 °F 32.9 °F 96% 30.01 in 10.0 mi North - - N/A   Overcast
6:55 AM 33.6 °F 32.9 °F 97% 30.02 in 10.0 mi North - - N/A   Overcast
7:15 AM 33.8 °F 32.9 °F 96% 30.02 in 10.0 mi North - - N/A   Overcast
7:35 AM 33.8 °F 32.9 °F 96% 30.02 in 10.0 mi North - - N/A   Overcast
7:55 AM 33.8 °F 32.9 °F 96% 30.02 in 10.0 mi North - - N/A   Mostly Cloudy
8:15 AM 33.1 °F 32.5 °F 98% 30.03 in 10.0 mi North - - N/A   Scattered Clouds
8:35 AM 34.7 °F 33.1 °F 94% 30.03 in 10.0 mi North - - N/A   Clear
8:55 AM 36.5 °F 32.9 °F 87% 30.04 in 10.0 mi North - - N/A   Clear
9:15 AM 37.0 °F 31.8 °F 81% 30.04 in 10.0 mi North - - N/A   Scattered Clouds
9:35 AM 38.3 °F 32.0 °F 78% 30.04 in 10.0 mi North - - N/A   Mostly Cloudy
10:15 AM 39.2 °F 32.0 °F 75% 30.04 in 10.0 mi North - - N/A   Mostly Cloudy
10:55 AM 41.7 °F 32.0 °F 68% 30.04 in 10.0 mi North - - N/A   Mostly Cloudy
11:15 AM 42.4 °F 32.0 °F 67% 30.05 in 10.0 mi North - - N/A   Scattered Clouds
11:35 AM 43.3 °F 31.3 °F 62% 30.05 in 10.0 mi North - - N/A   Scattered Clouds
11:55 AM 44.8 °F 31.8 °F 60% 30.04 in 10.0 mi North - - N/A   Scattered Clouds
12:15 PM 46.6 °F 32.0 °F 57% 30.03 in 10.0 mi North - - N/A   Scattered Clouds
12:35 PM 45.7 °F 30.0 °F 54% 30.01 in 10.0 mi North - - N/A   Scattered Clouds
12:55 PM 46.4 °F 28.9 °F 51% 30.01 in 10.0 mi North - - N/A   Clear
1:15 PM 47.3 °F 30.4 °F 52% 30.00 in 10.0 mi North - - N/A   Clear
1:35 PM 48.9 °F 30.7 °F 50% 29.99 in 10.0 mi North - - N/A   Clear
1:55 PM 49.8 °F 31.1 °F 49% 30.00 in 10.0 mi North - - N/A   Scattered Clouds
2:15 PM 50.0 °F 30.2 °F 47% 29.99 in 10.0 mi North - - N/A   Clear
2:55 PM 50.7 °F 30.6 °F 46% 29.97 in 10.0 mi North - - N/A   Clear
3:15 PM 50.9 °F 30.4 °F 45% 29.96 in 10.0 mi North - - N/A   Clear
3:35 PM 52.0 °F 31.3 °F 45% 29.97 in 10.0 mi North - - N/A   Scattered Clouds
4:35 PM 49.3 °F 30.9 °F 49% 29.98 in 10.0 mi North - - N/A   Scattered Clouds
4:55 PM 48.6 °F 31.8 °F 52% 29.99 in 10.0 mi North - - N/A   Scattered Clouds
5:15 PM 48.9 °F 32.2 °F 52% 29.99 in 10.0 mi North - - N/A   Mostly Cloudy
5:35 PM 48.2 °F 33.1 °F 56% 30.00 in 10.0 mi North - - N/A   Overcast
5:55 PM 47.7 °F 33.6 °F 58% 30.00 in 10.0 mi North - - N/A   Overcast
6:35 PM 42.8 °F 35.1 °F 74% 30.01 in 10.0 mi North - - N/A   Mostly Cloudy
6:55 PM 43.2 °F 35.1 °F 73% 30.01 in 10.0 mi North - - N/A   Overcast
7:15 PM 45.7 °F 34.9 °F 66% 30.02 in 10.0 mi North - - N/A   Overcast
7:35 PM 44.8 °F 34.7 °F 68% 30.03 in 10.0 mi North - - N/A   Overcast
7:55 PM 43.3 °F 35.6 °F 74% 30.03 in 10.0 mi North - - N/A   Mostly Cloudy
8:15 PM 40.3 °F 34.9 °F 81% 30.03 in 10.0 mi North - - N/A   Scattered Clouds
8:35 PM 38.7 °F 34.2 °F 84% 30.03 in 10.0 mi North - - N/A   Clear
8:55 PM 37.8 °F 34.2 °F 87% 30.03 in 10.0 mi North - - N/A   Scattered Clouds
9:15 PM 36.5 °F 33.8 °F 90% 30.03 in 10.0 mi North - - N/A   Scattered Clouds
9:35 PM 35.6 °F 33.3 °F 91% 30.03 in 10.0 mi North - - N/A   Clear
9:55 PM 34.7 °F 32.9 °F 93% 30.03 in 10.0 mi North - - N/A   Clear
10:15 PM 33.8 °F 32.4 °F 94% 30.03 in 10.0 mi North - - N/A   Clear
10:55 PM 32.7 °F 32.0 °F 97% 30.03 in 10.0 mi North - - N/A   Clear
11:15 PM 32.5 °F 32.0 °F 98% 30.03 in 10.0 mi North - - N/A   Scattered Clouds
11:35 PM 32.2 °F 32.0 °F 99% 30.03 in 10.0 mi North - - N/A   Scattered Clouds
11:55 PM 32.0 °F 32.0 °F 100% 30.03 in 10.0 mi North - - N/A   Scattered Clouds